Time,TemperatureF,DewpointF,PressureIn,WindDirection,WindDirectionDegrees,WindSpeedMPH,WindSpeedGustMPH,Humidity,HourlyPrecipIn,Conditions,Clouds,dailyrainin,SoftwareType,DateUTC
2013-01-10 00:00:00,54.7,31.4,29.69,SSW,204,13.0,21.0,41,0.00,CLR,,0.00,WeatherDisplay:10.37,2013-01-10 08:00:00,
2013-01-10 00:10:00,54.4,32.9,29.68,SSW,205,13.0,20.0,44,0.00,CLR,,0.00,WeatherDisplay:10.37,2013-01-10 08:10:00,
2013-01-10 00:20:00,54.2,33.3,29.68,SSW,202,14.0,20.0,45,0.00,CLR,,0.00,WeatherDisplay:10.37,2013-01-10 08:20:00,
2013-01-10 00:30:00,53.5,33.8,29.67,SSW,212,15.0,21.0,47,0.00,CLR,,0.00,WeatherDisplay:10.37,2013-01-10 08:30:00,
2013-01-10 00:40:00,53.1,34.4,29.68,SSW,201,12.0,18.0,49,0.00,CLR,,0.00,WeatherDisplay:10.37,2013-01-10 08:40:00,
2013-01-10 00:50:00,52.9,34.8,29.68,SSW,200,13.0,20.0,50,0.00,CLR,,0.00,WeatherDisplay:10.37,2013-01-10 08:50:00,
2013-01-10 01:00:00,52.0,34.9,29.69,SSW,202,9.0,15.0,52,0.00,CLR,,0.00,WeatherDisplay:10.37,2013-01-10 09:00:00,
2013-01-10 01:10:00,52.3,34.2,29.69,SSW,199,8.0,15.0,50,0.00,CLR,,0.00,WeatherDisplay:10.37,2013-01-10 09:10:00,
2013-01-10 01:20:00,52.6,32.9,29.69,SSW,213,7.0,12.0,47,0.00,CLR,,0.00,WeatherDisplay:10.37,2013-01-10 09:20:00,
2013-01-10 01:30:00,52.0,32.4,29.68,SW,224,7.0,10.0,47,0.00,CLR,,0.00,WeatherDisplay:10.37,2013-01-10 09:30:00,
2013-01-10 01:40:00,51.5,31.9,29.68,SW,218,0.0,7.0,47,0.00,CLR,,0.00,WeatherDisplay:10.37,2013-01-10 09:40:00,
2013-01-10 01:50:00,51.3,31.7,29.68,South,175,3.0,7.0,47,0.00,CLR,,0.00,WeatherDisplay:10.37,2013-01-10 09:50:00,
2013-01-10 02:00:00,50.9,31.9,29.68,SSW,212,9.0,12.0,48,0.00,CLR,,0.00,WeatherDisplay:10.37,2013-01-10 10:00:00,
2013-01-10 02:05:00,50.7,31.7,29.68,SW,218,6.0,12.0,48,0.00,CLR,,0.00,WeatherDisplay:10.37,2013-01-10 10:05:00,
2013-01-10 02:10:00,50.5,31.5,29.68,SSW,210,2.0,6.0,48,0.00,CLR,,0.00,WeatherDisplay:10.37,2013-01-10 10:10:00,
2013-01-10 02:20:00,49.8,31.8,29.67,SSW,206,1.0,5.0,50,0.00,CLR,,0.00,WeatherDisplay:10.37,2013-01-10 10:20:00,
2013-01-10 02:30:00,49.2,32.3,29.68,SSW,200,7.0,10.0,52,0.00,CLR,,0.00,WeatherDisplay:10.37,2013-01-10 10:30:00,
2013-01-10 02:40:00,49.4,32.5,29.68,SSW,197,9.0,13.0,52,0.00,CLR,,0.00,WeatherDisplay:10.37,2013-01-10 10:40:00,
2013-01-10 02:50:00,49.9,31.9,29.67,SW,221,10.0,15.0,50,0.00,CLR,,0.00,WeatherDisplay:10.37,2013-01-10 10:50:00,
2013-01-10 03:00:00,49.9,32.0,29.67,SW,234,5.0,14.0,50,0.00,CLR,,0.00,WeatherDisplay:10.37,2013-01-10 11:00:00,
2013-01-10 03:05:00,49.6,31.2,29.67,SW,235,8.0,10.0,49,0.00,CLR,,0.00,WeatherDisplay:10.37,2013-01-10 11:05:00,
2013-01-10 03:10:00,49.4,31.5,29.67,SW,231,3.0,12.0,50,0.00,CLR,,0.00,WeatherDisplay:10.37,2013-01-10 11:10:00,
2013-01-10 03:20:00,48.9,31.5,29.67,SSW,206,8.0,12.0,51,0.00,CLR,,0.00,WeatherDisplay:10.37,2013-01-10 11:20:00,
2013-01-10 03:30:00,48.1,31.7,29.67,SSW,211,7.0,12.0,53,0.00,CLR,,0.00,WeatherDisplay:10.37,2013-01-10 11:30:00,
2013-01-10 03:40:00,48.8,31.9,29.66,SW,214,9.0,14.0,52,0.00,CLR,,0.00,WeatherDisplay:10.37,2013-01-10 11:40:00,
2013-01-10 03:50:00,48.9,32.0,29.66,SSW,197,9.0,15.0,52,0.00,CLR,,0.00,WeatherDisplay:10.37,2013-01-10 11:50:00,
2013-01-10 04:00:00,48.9,31.5,29.65,South,191,9.0,15.0,51,0.00,CLR,,0.00,WeatherDisplay:10.37,2013-01-10 12:00:00,
2013-01-10 04:05:00,48.8,31.9,29.65,South,183,6.0,14.0,52,0.00,CLR,,0.00,WeatherDisplay:10.37,2013-01-10 12:05:00,
2013-01-10 04:10:00,47.8,32.0,29.64,South,169,3.0,8.0,54,0.00,CLR,,0.00,WeatherDisplay:10.37,2013-01-10 12:10:00,
2013-01-10 04:20:00,47.0,32.1,29.64,South,174,5.0,14.0,56,0.00,CLR,,0.00,WeatherDisplay:10.37,2013-01-10 12:20:00,
2013-01-10 04:30:00,46.9,31.5,29.65,South,179,3.0,8.0,55,0.00,CLR,,0.00,WeatherDisplay:10.37,2013-01-10 12:30:00,
2013-01-10 04:40:00,46.7,30.9,29.66,SSW,205,8.0,12.0,54,0.00,CLR,,0.00,WeatherDisplay:10.37,2013-01-10 12:40:00,
2013-01-10 04:50:00,47.3,32.4,29.66,SSW,207,10.0,15.0,56,0.00,CLR,,0.00,WeatherDisplay:10.37,2013-01-10 12:50:00,
2013-01-10 05:00:00,47.0,30.8,29.65,South,190,8.0,20.0,53,0.00,CLR,,0.00,WeatherDisplay:10.37,2013-01-10 13:00:00,
2013-01-10 05:05:00,47.0,29.8,29.65,SSW,194,9.0,16.0,51,0.00,CLR,,0.00,WeatherDisplay:10.37,2013-01-10 13:05:00,
2013-01-10 05:10:00,46.7,29.5,29.65,South,183,6.0,12.0,51,0.00,CLR,,0.00,WeatherDisplay:10.37,2013-01-10 13:10:00,
2013-01-10 05:20:00,46.0,28.9,29.66,South,174,5.0,10.0,51,0.00,CLR,,0.00,WeatherDisplay:10.37,2013-01-10 13:20:00,
2013-01-10 05:30:00,44.9,27.4,29.67,South,169,3.0,10.0,50,0.00,CLR,,0.00,WeatherDisplay:10.37,2013-01-10 13:30:00,
2013-01-10 05:40:00,45.5,25.3,29.68,SSW,208,5.0,17.0,45,0.00,CLR,,0.00,WeatherDisplay:10.37,2013-01-10 13:40:00,
2013-01-10 05:50:00,43.2,26.3,29.68,South,182,6.0,13.0,51,0.00,CLR,,0.00,WeatherDisplay:10.37,2013-01-10 13:50:00,
2013-01-10 06:00:00,43.8,24.9,29.69,SSW,211,16.0,24.0,47,0.00,CLR,,0.00,WeatherDisplay:10.37,2013-01-10 14:00:00,
2013-01-10 06:05:00,43.9,24.9,29.69,SSW,206,16.0,26.0,47,0.00,CLR,,0.00,WeatherDisplay:10.37,2013-01-10 14:05:00,
2013-01-10 06:10:00,43.5,25.1,29.70,SSW,201,15.0,25.0,48,0.00,CLR,,0.00,WeatherDisplay:10.37,2013-01-10 14:10:00,
2013-01-10 06:20:00,42.5,25.1,29.71,SSW,202,20.0,26.0,50,0.00,CLR,,0.00,WeatherDisplay:10.37,2013-01-10 14:20:00,
2013-01-10 06:30:00,41.9,25.1,29.73,SSW,208,18.0,28.0,51,0.00,CLR,,0.00,WeatherDisplay:10.37,2013-01-10 14:30:00,
2013-01-10 06:40:00,41.5,23.7,29.73,SSW,202,16.0,22.0,49,0.00,CLR,,0.00,WeatherDisplay:10.37,2013-01-10 14:40:00,
2013-01-10 06:50:00,41.1,22.9,29.73,SSW,198,14.0,22.0,48,0.00,CLR,,0.00,WeatherDisplay:10.37,2013-01-10 14:50:00,
2013-01-10 07:00:00,40.9,21.7,29.72,SSW,196,14.0,21.0,46,0.00,CLR,,0.00,WeatherDisplay:10.37,2013-01-10 15:00:00,
2013-01-10 07:05:00,40.6,20.9,29.72,SSW,199,14.0,17.0,45,0.00,CLR,,0.00,WeatherDisplay:10.37,2013-01-10 15:05:00,
2013-01-10 07:10:00,41.5,18.9,29.73,SW,215,20.0,25.0,40,0.00,CLR,,0.00,WeatherDisplay:10.37,2013-01-10 15:10:00,
2013-01-10 07:20:00,41.0,17.9,29.74,SW,214,15.0,24.0,39,0.00,CLR,,0.00,WeatherDisplay:10.37,2013-01-10 15:20:00,
2013-01-10 07:30:00,41.1,17.4,29.74,SSW,200,12.0,21.0,38,0.00,CLR,,0.00,WeatherDisplay:10.37,2013-01-10 15:30:00,
2013-01-10 07:40:00,40.6,16.9,29.74,SSW,201,13.0,20.0,38,0.00,CLR,,0.00,WeatherDisplay:10.37,2013-01-10 15:40:00,
2013-01-10 07:50:00,41.1,16.8,29.74,SSW,199,10.0,20.0,37,0.00,CLR,,0.00,WeatherDisplay:10.37,2013-01-10 15:50:00,
2013-01-10 08:00:00,41.2,16.3,29.75,SSW,198,17.0,24.0,36,0.00,CLR,,0.00,WeatherDisplay:10.37,2013-01-10 16:00:00,
2013-01-10 08:05:00,41.2,17.5,29.75,SSW,199,15.0,23.0,38,0.00,CLR,,0.00,WeatherDisplay:10.37,2013-01-10 16:05:00,
2013-01-10 08:10:00,41.2,17.5,29.75,SSW,199,14.0,20.0,38,0.00,CLR,,0.00,WeatherDisplay:10.37,2013-01-10 16:10:00,
2013-01-10 08:20:00,41.5,17.1,29.75,SSW,198,8.0,20.0,37,0.00,CLR,,0.00,WeatherDisplay:10.37,2013-01-10 16:20:00,
2013-01-10 08:30:00,42.2,15.1,29.75,SSW,199,14.0,20.0,33,0.00,CLR,,0.00,WeatherDisplay:10.37,2013-01-10 16:30:00,
2013-01-10 08:40:00,43.0,12.1,29.75,SSW,213,8.0,18.0,28,0.00,CLR,,0.00,WeatherDisplay:10.37,2013-01-10 16:40:00,
2013-01-10 08:50:00,44.2,10.5,29.75,West,267,9.0,14.0,25,0.00,CLR,,0.00,WeatherDisplay:10.37,2013-01-10 16:50:00,
2013-01-10 09:00:00,44.6,10.9,29.75,West,271,12.0,14.0,25,0.00,CLR,,0.00,WeatherDisplay:10.37,2013-01-10 17:00:00,
2013-01-10 09:05:00,44.5,11.7,29.75,WNW,292,9.0,15.0,26,0.00,CLR,,0.00,WeatherDisplay:10.37,2013-01-10 17:05:00,
2013-01-10 09:10:00,44.5,11.7,29.75,NW,307,13.0,20.0,26,0.00,CLR,,0.00,WeatherDisplay:10.37,2013-01-10 17:10:00,
2013-01-10 09:20:00,44.5,11.7,29.75,West,272,16.0,22.0,26,0.00,CLR,,0.00,WeatherDisplay:10.37,2013-01-10 17:20:00,
2013-01-10 09:30:00,44.6,10.9,29.74,West,268,21.0,27.0,25,0.00,CLR,,0.00,WeatherDisplay:10.37,2013-01-10 17:30:00,
2013-01-10 09:40:00,45.1,9.4,29.74,WSW,252,18.0,25.0,23,0.00,CLR,,0.00,WeatherDisplay:10.37,2013-01-10 17:40:00,
2013-01-10 09:50:00,45.2,12.3,29.74,WSW,257,16.0,22.0,26,0.00,CLR,,0.00,WeatherDisplay:10.37,2013-01-10 17:50:00,
2013-01-10 10:00:00,45.5,9.8,29.73,WSW,256,18.0,25.0,23,0.00,CLR,,0.00,WeatherDisplay:10.37,2013-01-10 18:00:00,
2013-01-10 10:10:00,45.7,10.0,29.73,WSW,258,14.0,25.0,23,0.00,CLR,,0.00,WeatherDisplay:10.37,2013-01-10 18:10:00,
2013-01-10 10:20:00,46.1,9.3,29.73,West,261,20.0,25.0,22,0.00,CLR,,0.00,WeatherDisplay:10.37,2013-01-10 18:20:00,
2013-01-10 10:30:00,46.6,8.7,29.72,WSW,253,17.0,25.0,21,0.00,CLR,,0.00,WeatherDisplay:10.37,2013-01-10 18:30:00,
2013-01-10 10:40:00,46.1,8.3,29.72,WSW,256,17.0,26.0,21,0.00,CLR,,0.00,WeatherDisplay:10.37,2013-01-10 18:40:00,
2013-01-10 10:50:00,46.4,7.5,29.71,WSW,241,17.0,25.0,20,0.00,CLR,,0.00,WeatherDisplay:10.37,2013-01-10 18:50:00,
2013-01-10 11:00:00,46.6,8.7,29.71,WSW,250,14.0,22.0,21,0.00,CLR,,0.00,WeatherDisplay:10.37,2013-01-10 19:00:00,
2013-01-10 11:05:00,46.4,7.5,29.72,WSW,248,16.0,24.0,20,0.00,CLR,,0.00,WeatherDisplay:10.37,2013-01-10 19:05:00,
2013-01-10 11:10:00,46.3,11.4,29.72,WSW,256,18.0,29.0,24,0.00,CLR,,0.00,WeatherDisplay:10.37,2013-01-10 19:10:00,
2013-01-10 11:20:00,46.3,9.5,29.72,WSW,248,22.0,37.0,22,0.00,CLR,,0.00,WeatherDisplay:10.37,2013-01-10 19:20:00,
2013-01-10 11:30:00,45.8,12.8,29.70,WSW,245,29.0,35.0,26,0.00,CLR,,0.00,WeatherDisplay:10.37,2013-01-10 19:30:00,
2013-01-10 11:40:00,46.1,12.2,29.70,WSW,253,23.0,36.0,25,0.00,CLR,,0.00,WeatherDisplay:10.37,2013-01-10 19:40:00,
2013-01-10 11:50:00,45.3,13.2,29.69,WSW,238,24.0,35.0,27,0.00,CLR,,0.00,WeatherDisplay:10.37,2013-01-10 19:50:00,
2013-01-10 12:00:00,45.5,11.7,29.68,WSW,238,25.0,33.0,25,0.00,CLR,,0.00,WeatherDisplay:10.37,2013-01-10 20:00:00,
2013-01-10 12:10:00,46.0,12.1,29.69,WSW,246,22.0,30.0,25,0.00,CLR,,0.00,WeatherDisplay:10.37,2013-01-10 20:10:00,
2013-01-10 12:20:00,46.2,11.3,29.70,WSW,242,21.0,29.0,24,0.00,CLR,,0.00,WeatherDisplay:10.37,2013-01-10 20:20:00,
2013-01-10 12:30:00,46.4,11.5,29.70,WSW,255,18.0,26.0,24,0.00,CLR,,0.00,WeatherDisplay:10.37,2013-01-10 20:30:00,
2013-01-10 12:40:00,46.1,11.2,29.70,WSW,251,24.0,29.0,24,0.00,CLR,,0.00,WeatherDisplay:10.37,2013-01-10 20:40:00,
2013-01-10 12:50:00,45.4,11.6,29.69,WSW,244,24.0,33.0,25,0.00,CLR,,0.00,WeatherDisplay:10.37,2013-01-10 20:50:00,
2013-01-10 13:00:00,45.8,10.0,29.69,WSW,246,23.0,32.0,23,0.00,CLR,,0.00,WeatherDisplay:10.37,2013-01-10 21:00:00,
2013-01-10 13:05:00,45.4,11.6,29.69,WSW,249,24.0,32.0,25,0.00,CLR,,0.00,WeatherDisplay:10.37,2013-01-10 21:05:00,
2013-01-10 13:10:00,45.8,11.9,29.68,WSW,244,23.0,31.0,25,0.00,CLR,,0.00,WeatherDisplay:10.37,2013-01-10 21:10:00,
2013-01-10 13:20:00,45.3,12.4,29.68,WSW,238,25.0,33.0,26,0.00,CLR,,0.00,WeatherDisplay:10.37,2013-01-10 21:20:00,
2013-01-10 13:30:00,45.4,10.7,29.68,WSW,246,22.0,35.0,24,0.00,CLR,,0.00,WeatherDisplay:10.37,2013-01-10 21:30:00,
2013-01-10 13:40:00,45.2,12.3,29.68,WSW,245,26.0,32.0,26,0.00,CLR,,0.00,WeatherDisplay:10.37,2013-01-10 21:40:00,
2013-01-10 13:50:00,44.8,12.8,29.68,WSW,241,28.0,35.0,27,0.00,CLR,,0.00,WeatherDisplay:10.37,2013-01-10 21:50:00,
2013-01-10 14:00:00,44.6,11.7,29.68,WSW,244,29.0,37.0,26,0.00,,,0.00,WeatherDisplay:10.37,2013-01-10 22:00:00,
2013-01-10 14:10:00,44.5,13.3,29.68,SW,236,23.0,35.0,28,0.00,CLR,,0.00,WeatherDisplay:10.37,2013-01-10 22:10:00,
2013-01-10 14:20:00,44.2,12.3,29.68,WSW,249,29.0,35.0,27,0.00,,,0.00,WeatherDisplay:10.37,2013-01-10 22:20:00,
2013-01-10 14:30:00,44.2,11.4,29.68,WSW,255,28.0,37.0,26,0.00,CLR,,0.00,WeatherDisplay:10.37,2013-01-10 22:30:00,
2013-01-10 14:40:00,44.0,11.3,29.68,WSW,256,22.0,33.0,26,0.00,CLR,,0.00,WeatherDisplay:10.37,2013-01-10 22:40:00,
2013-01-10 14:50:00,44.3,9.7,29.67,West,263,23.0,35.0,24,0.00,CLR,,0.00,WeatherDisplay:10.37,2013-01-10 22:50:00,
2013-01-10 15:00:00,44.5,8.0,29.67,West,265,25.0,31.0,22,0.00,CLR,,0.00,WeatherDisplay:10.37,2013-01-10 23:00:00,
2013-01-10 15:05:00,43.7,12.7,29.68,WSW,255,17.0,29.0,28,0.00,CLR,,0.00,WeatherDisplay:10.37,2013-01-10 23:05:00,
2013-01-10 15:10:00,44.2,7.7,29.67,West,259,22.0,31.0,22,0.00,CLR,,0.00,WeatherDisplay:10.37,2013-01-10 23:10:00,
2013-01-10 15:20:00,44.2,8.7,29.67,West,261,22.0,36.0,23,0.00,CLR,,0.00,WeatherDisplay:10.37,2013-01-10 23:20:00,
2013-01-10 15:30:00,43.9,8.4,29.68,West,270,23.0,32.0,23,0.00,CLR,,0.00,WeatherDisplay:10.37,2013-01-10 23:30:00,
2013-01-10 15:40:00,43.2,10.6,29.67,West,271,26.0,35.0,26,0.00,CLR,,0.00,WeatherDisplay:10.37,2013-01-10 23:40:00,
2013-01-10 15:50:00,42.8,11.1,29.67,West,281,24.0,33.0,27,0.00,CLR,,0.00,WeatherDisplay:10.37,2013-01-10 23:50:00,
2013-01-10 16:00:00,42.8,10.2,29.67,WNW,283,22.0,31.0,26,0.00,CLR,,0.00,WeatherDisplay:10.37,2013-01-11 00:00:00,
2013-01-10 16:05:00,43.0,8.6,29.67,WNW,285,20.0,30.0,24,0.00,CLR,,0.00,WeatherDisplay:10.37,2013-01-11 00:05:00,
2013-01-10 16:10:00,42.9,7.6,29.67,WNW,285,20.0,31.0,23,0.00,CLR,,0.00,WeatherDisplay:10.37,2013-01-11 00:10:00,
2013-01-10 16:20:00,42.3,8.9,29.68,WNW,285,18.0,31.0,25,0.00,CLR,,0.00,WeatherDisplay:10.37,2013-01-11 00:20:00,
2013-01-10 16:30:00,42.1,9.6,29.68,WNW,284,18.0,29.0,26,0.00,CLR,,0.00,WeatherDisplay:10.37,2013-01-11 00:30:00,
2013-01-10 16:40:00,41.9,8.6,29.69,WNW,290,17.0,26.0,25,0.00,CLR,,0.00,WeatherDisplay:10.37,2013-01-11 00:40:00,
2013-01-10 16:50:00,41.2,9.7,29.70,WNW,293,16.0,24.0,27,0.00,CLR,,0.00,WeatherDisplay:10.37,2013-01-11 00:50:00,
2013-01-10 17:00:00,41.5,9.1,29.70,WNW,289,15.0,24.0,26,0.00,CLR,,0.00,WeatherDisplay:10.37,2013-01-11 01:00:00,
2013-01-10 17:05:00,41.5,9.1,29.70,WNW,286,15.0,26.0,26,0.00,CLR,,0.00,WeatherDisplay:10.37,2013-01-11 01:05:00,
2013-01-10 17:10:00,41.5,8.2,29.71,WNW,291,13.0,22.0,25,0.00,CLR,,0.00,WeatherDisplay:10.37,2013-01-11 01:10:00,
2013-01-10 17:20:00,41.6,7.4,29.72,WNW,288,16.0,21.0,24,0.00,CLR,,0.00,WeatherDisplay:10.37,2013-01-11 01:20:00,
2013-01-10 17:30:00,41.6,6.5,29.74,WNW,289,12.0,21.0,23,0.00,CLR,,0.00,WeatherDisplay:10.37,2013-01-11 01:30:00,
2013-01-10 17:40:00,41.6,7.4,29.74,WNW,291,14.0,21.0,24,0.00,CLR,,0.00,WeatherDisplay:10.37,2013-01-11 01:40:00,
2013-01-10 17:50:00,41.5,7.3,29.75,WNW,289,10.0,21.0,24,0.00,CLR,,0.00,WeatherDisplay:10.37,2013-01-11 01:50:00,
2013-01-10 18:00:00,41.3,6.2,29.76,WNW,291,14.0,20.0,23,0.00,CLR,,0.00,WeatherDisplay:10.37,2013-01-11 02:00:00,
2013-01-10 18:10:00,41.2,6.1,29.77,WNW,286,13.0,20.0,23,0.00,CLR,,0.00,WeatherDisplay:10.37,2013-01-11 02:10:00,
2013-01-10 18:20:00,41.1,5.1,29.78,WNW,288,13.0,20.0,22,0.00,CLR,,0.00,WeatherDisplay:10.37,2013-01-11 02:20:00,
2013-01-10 18:30:00,40.8,5.8,29.78,WNW,288,12.0,16.0,23,0.00,CLR,,0.00,WeatherDisplay:10.37,2013-01-11 02:30:00,
2013-01-10 18:40:00,40.3,6.3,29.80,WNW,293,13.0,20.0,24,0.00,CLR,,0.00,WeatherDisplay:10.37,2013-01-11 02:40:00,
2013-01-10 18:50:00,39.9,7.7,29.80,WNW,288,12.0,17.0,26,0.00,CLR,,0.00,WeatherDisplay:10.37,2013-01-11 02:50:00,
2013-01-10 19:05:00,39.6,8.3,29.81,WNW,292,7.0,14.0,27,0.00,CLR,,0.00,WeatherDisplay:10.37,2013-01-11 03:05:00,
2013-01-10 19:10:00,39.5,7.4,29.81,WNW,289,8.0,13.0,26,0.00,CLR,,0.00,WeatherDisplay:10.37,2013-01-11 03:10:00,
2013-01-10 19:20:00,39.3,8.1,29.82,WNW,290,9.0,15.0,27,0.00,CLR,,0.00,WeatherDisplay:10.37,2013-01-11 03:20:00,
2013-01-10 19:30:00,39.5,8.2,29.82,WNW,294,8.0,15.0,27,0.00,CLR,,0.00,WeatherDisplay:10.37,2013-01-11 03:30:00,
2013-01-10 19:40:00,39.3,8.9,29.83,NW,305,7.0,17.0,28,0.00,CLR,,0.00,WeatherDisplay:10.37,2013-01-11 03:40:00,
2013-01-10 19:50:00,39.1,9.5,29.84,NW,312,10.0,21.0,29,0.00,CLR,,0.00,WeatherDisplay:10.37,2013-01-11 03:50:00,
2013-01-10 20:00:00,39.1,11.7,29.85,WNW,302,16.0,24.0,32,0.00,CLR,,0.00,WeatherDisplay:10.37,2013-01-11 04:00:00,
2013-01-10 20:05:00,38.9,12.9,29.85,WNW,296,12.0,22.0,34,0.00,CLR,,0.00,WeatherDisplay:10.37,2013-01-11 04:05:00,
2013-01-10 20:10:00,38.9,12.8,29.86,WNW,293,8.0,16.0,34,0.00,CLR,,0.00,WeatherDisplay:10.37,2013-01-11 04:10:00,
2013-01-10 20:20:00,38.8,12.1,29.86,WNW,299,9.0,13.0,33,0.00,CLR,,0.00,WeatherDisplay:10.37,2013-01-11 04:20:00,
2013-01-10 20:30:00,38.6,12.6,29.86,WNW,288,13.0,20.0,34,0.00,CLR,,0.00,WeatherDisplay:10.37,2013-01-11 04:30:00,
2013-01-10 20:40:00,38.8,12.1,29.86,NW,313,12.0,20.0,33,0.00,CLR,,0.00,WeatherDisplay:10.37,2013-01-11 04:40:00,
2013-01-10 20:50:00,38.2,12.9,29.86,WNW,296,8.0,15.0,35,0.00,CLR,,0.00,WeatherDisplay:10.37,2013-01-11 04:50:00,
2013-01-10 21:05:00,37.9,12.6,29.87,NW,308,9.0,16.0,35,0.00,CLR,,0.00,WeatherDisplay:10.37,2013-01-11 05:05:00,
2013-01-10 21:10:00,37.8,12.6,29.88,WNW,301,7.0,13.0,35,0.00,CLR,,0.00,WeatherDisplay:10.37,2013-01-11 05:10:00,
2013-01-10 21:15:00,37.9,12.0,29.88,NW,307,9.0,15.0,34,0.00,CLR,,0.00,WeatherDisplay:10.37,2013-01-11 05:15:00,
2013-01-10 21:20:00,37.8,12.6,29.88,NW,309,6.0,12.0,35,0.00,CLR,,0.00,WeatherDisplay:10.37,2013-01-11 05:20:00,
2013-01-10 21:30:00,37.7,11.8,29.88,NW,307,6.0,12.0,34,0.00,CLR,,0.00,WeatherDisplay:10.37,2013-01-11 05:30:00,
2013-01-10 21:40:00,37.2,11.4,29.88,WNW,296,5.0,8.0,34,0.00,CLR,,0.00,WeatherDisplay:10.37,2013-01-11 05:40:00,
2013-01-10 21:50:00,38.2,10.2,29.88,NW,307,7.0,14.0,31,0.00,CLR,,0.00,WeatherDisplay:10.37,2013-01-11 05:50:00,
2013-01-10 22:00:00,38.8,10.0,29.88,NW,313,7.0,15.0,30,0.00,CLR,,0.00,WeatherDisplay:10.37,2013-01-11 06:00:00,
2013-01-10 22:05:00,38.2,10.2,29.89,NW,314,7.0,12.0,31,0.00,CLR,,0.00,WeatherDisplay:10.37,2013-01-11 06:05:00,
2013-01-10 22:10:00,37.8,9.1,29.89,WNW,293,2.0,12.0,30,0.00,CLR,,0.00,WeatherDisplay:10.37,2013-01-11 06:10:00,
2013-01-10 22:20:00,37.9,12.0,29.89,NW,310,5.0,7.0,34,0.00,CLR,,0.00,WeatherDisplay:10.37,2013-01-11 06:20:00,
2013-01-10 22:30:00,37.9,10.6,29.90,NW,307,3.0,10.0,32,0.00,CLR,,0.00,WeatherDisplay:10.37,2013-01-11 06:30:00,
2013-01-10 22:40:00,37.6,11.0,29.90,SSW,213,3.0,15.0,33,0.00,CLR,,0.00,WeatherDisplay:10.37,2013-01-11 06:40:00,
2013-01-10 22:50:00,37.6,12.4,29.90,SSW,213,0.0,6.0,35,0.00,CLR,,0.00,WeatherDisplay:10.37,2013-01-11 06:50:00,
2013-01-10 23:00:00,37.0,11.8,29.90,SW,225,0.0,5.0,35,0.00,CLR,,0.00,WeatherDisplay:10.37,2013-01-11 07:00:00,
2013-01-10 23:10:00,36.9,11.8,29.91,WSW,246,0.0,6.0,35,0.00,CLR,,0.00,WeatherDisplay:10.37,2013-01-11 07:10:00,
2013-01-10 23:20:00,36.7,11.5,29.91,West,261,0.0,6.0,35,0.00,CLR,,0.00,WeatherDisplay:10.37,2013-01-11 07:20:00,
2013-01-10 23:30:00,35.8,12.0,29.92,WSW,248,3.0,10.0,37,0.00,CLR,,0.00,WeatherDisplay:10.37,2013-01-11 07:30:00,
2013-01-10 23:40:00,36.4,13.8,29.92,WNW,301,5.0,12.0,39,0.00,CLR,,0.00,WeatherDisplay:10.37,2013-01-11 07:40:00,
2013-01-10 23:50:00,36.6,15.1,29.93,NW,304,10.0,15.0,41,0.00,CLR,,0.00,WeatherDisplay:10.37,2013-01-11 07:50:00,